DW8847 Weather Reports


Display with metric or nautical units.
time (UTC)temp
F
wind
direction
speed
MPH
gust
MPH
rain 1hr
in
rain 24hr
in
rain mn
in
humidity
%
barometer
mb
20260504151050 73 189 1.0 5.0 0.00 0.00 0.00 51 1014.9
20260504150552 73 213 1.0 4.0 0.00 0.00 0.00 50 1015.0
20260504141046 73 122 0.0 4.0 0.00 0.00 0.00 51 1015.3
20260504140546 73 95 0.0 5.0 0.00 0.00 0.00 50 1015.2
20260504130545 75 221 2.0 8.0 0.00 0.00 0.00 45 1015.5
20260504110530 75 67 1.0 5.0 0.00 0.00 0.00 39 1016.4
20260504100527 74 71 0.0 3.0 0.00 0.00 0.00 39 1016.9
20260504081519 71 62 0.0 2.0 0.00 0.00 0.00 46 1017.2
20260504081014 70 62 0.0 2.0 0.00 0.00 0.00 48 1017.2
20260504080517 69 62 0.0 3.0 0.00 0.00 0.00 49 1017.2
20260504050526 54 66 0.0 2.0 0.00 0.00 0.00 78 1016.4
20260504050025 53 66 0.0 2.0 0.00 0.00 0.00 78 1016.3
20260504045524 53 66 0.0 2.0 0.00 0.00 0.00 78 1016.3
20260504045032 52 66 0.0 1.0 0.00 0.00 0.00 78 1016.3
20260504044524 52 66 0.0 0.0 0.00 0.00 0.00 79 1016.3
20260504044025 51 66 0.0 1.0 0.00 0.00 0.00 79 1016.3
20260504043522 51 66 0.0 2.0 0.00 0.00 0.00 80 1016.2
20260504043021 50 66 0.0 2.0 0.00 0.00 0.00 80 1016.2
20260504042521 50 66 0.0 2.0 0.00 0.00 0.00 80 1016.2
20260504042019 50 66 0.0 2.0 0.00 0.00 0.00 80 1016.1
20260504041519 50 66 0.0 2.0 0.00 0.00 0.00 80 1016.1
20260504041018 50 66 0.0 2.0 0.00 0.00 0.00 80 1016.1
20260504040518 50 67 1.0 2.0 0.00 0.00 0.00 80 1016.1
20260504040018 50 87 0.0 1.0 0.00 0.00 0.00 80 1016.1
20260504035517 50 87 0.0 0.0 0.00 0.00 0.00 79 1016.2
20260504035016 50 87 0.0 0.0 0.00 0.00 0.00 79 1016.2
20260504034516 50 87 0.0 0.0 0.00 0.00 0.00 79 1016.2
20260504034016 50 87 0.0 0.0 0.00 0.00 0.00 79 1016.2
20260504033522 50 108 0.0 0.0 0.00 0.00 0.00 80 1016.2
20260504033016 50 108 0.0 0.0 0.00 0.00 0.00 80 1016.2
20260504032516 50 108 0.0 0.0 0.00 0.00 0.00 80 1016.2
20260504032016 50 108 0.0 0.0 0.00 0.00 0.00 80 1016.2
20260504031516 50 169 0.0 0.0 0.00 0.00 0.00 80 1016.2
20260504031014 50 169 0.0 0.0 0.00 0.00 0.00 79 1016.2
20260504030514 50 169 0.0 0.0 0.00 0.00 0.00 79 1016.2
20260504030016 51 169 0.0 0.0 0.00 0.00 0.00 79 1016.2
20260504025516 51 169 0.0 0.0 0.00 0.00 0.00 79 1016.2
20260504025019 50 169 0.0 0.0 0.00 0.00 0.00 80 1016.2
20260504024514 50 169 0.0 0.0 0.00 0.00 0.00 81 1016.2
20260504024013 50 169 0.0 0.0 0.00 0.00 0.00 80 1016.3
20260504023513 50 169 0.0 0.0 0.00 0.00 0.00 79 1016.4
20260504023013 51 169 0.0 0.0 0.00 0.00 0.00 79 1016.3
20260504022513 51 169 0.0 0.0 0.00 0.00 0.00 80 1016.4
20260504022012 50 169 0.0 0.0 0.00 0.00 0.00 81 1016.4
20260504021513 50 171 0.0 0.0 0.00 0.00 0.00 82 1016.4
20260504021013 50 171 0.0 0.0 0.00 0.00 0.00 83 1016.3
20260504020512 49 171 0.0 0.0 0.00 0.00 0.00 82 1016.3
20260504020011 50 171 0.0 0.0 0.00 0.00 0.00 82 1016.3
20260504015511 50 172 0.0 0.0 0.00 0.00 0.00 82 1016.3
20260504015010 50 172 0.0 0.0 0.00 0.00 0.00 81 1016.3
20260504014511 50 172 0.0 0.0 0.00 0.00 0.00 81 1016.3
20260504014007 51 172 0.0 0.0 0.00 0.00 0.00 80 1016.4
20260504013511 51 172 0.0 0.0 0.00 0.00 0.00 80 1016.4
20260504013007 51 172 0.0 0.0 0.00 0.00 0.00 80 1016.4
20260504012506 51 172 0.0 0.0 0.00 0.00 0.00 80 1016.4
20260504012005 51 172 0.0 0.0 0.00 0.00 0.00 79 1016.3
20260504011504 52 172 0.0 0.0 0.00 0.00 0.00 78 1016.3
20260504011004 52 172 0.0 0.0 0.00 0.00 0.00 77 1016.3
20260504010503 53 172 0.0 0.0 0.00 0.00 0.00 76 1016.4
20260504010004 53 172 0.0 0.0 0.00 0.00 0.00 76 1016.4
20260504005503 53 172 0.0 0.0 0.00 0.00 0.00 76 1016.4
20260504005003 53 172 0.0 0.0 0.00 0.00 0.00 76 1016.4
20260504004507 53 172 0.0 0.0 0.00 0.00 0.00 76 1016.4
20260504004003 53 172 0.0 0.0 0.00 0.00 0.00 76 1016.4
20260504003502 53 172 0.0 0.0 0.00 0.00 0.00 76 1016.4
20260504003002 53 172 0.0 0.0 0.00 0.00 0.00 76 1016.4
20260504002501 53 172 0.0 0.0 0.00 0.00 0.00 77 1016.5
20260504002002 53 172 0.0 0.0 0.00 0.00 0.00 77 1016.5
20260504001503 53 172 0.0 0.0 0.00 0.00 0.00 77 1016.5
20260504001101 53 172 0.0 0.0 0.00 0.00 0.00 77 1016.5
20260504000559 53 172 0.0 0.0 0.00 0.00 0.00 77 1016.5
20260504000104 53 172 0.0 0.0 0.00 0.00 0.00 78 1016.5
20260503235559 53 172 0.0 0.0 0.00 0.00 0.00 77 1016.5
20260503235059 53 172 0.0 0.0 0.00 0.00 0.00 77 1016.5
20260503234559 53 172 0.0 0.0 0.00 0.00 0.00 78 1016.5
20260503234059 52 172 0.0 0.0 0.00 0.00 0.00 79 1016.6
20260503233602 52 172 0.0 0.0 0.00 0.00 0.00 79 1016.6
20260503233107 52 172 0.0 0.0 0.00 0.00 0.00 79 1016.5
20260503232602 52 172 0.0 0.0 0.00 0.00 0.00 79 1016.5
20260503232058 52 172 0.0 0.0 0.00 0.00 0.00 78 1016.6
20260503231557 52 172 0.0 2.0 0.00 0.00 0.00 78 1016.6
20260503231057 52 172 0.0 2.0 0.00 0.00 0.00 78 1016.6
20260503230556 53 172 0.0 2.0 0.00 0.00 0.00 77 1016.6
20260503230111 53 172 0.0 0.0 0.00 0.00 0.00 77 1016.6
20260503225556 53 172 0.0 0.0 0.00 0.00 0.00 77 1016.6
20260503225056 53 172 0.0 0.0 0.00 0.00 0.00 77 1016.7
20260503224556 53 172 0.0 1.0 0.00 0.00 0.00 77 1016.6
20260503224056 53 172 0.0 2.0 0.00 0.00 0.00 77 1016.6
20260503223556 52 172 0.0 2.0 0.00 0.00 0.00 78 1016.6
20260503223109 52 172 0.0 0.0 0.00 0.00 0.00 78 1016.7
20260503222554 53 172 0.0 1.0 0.00 0.00 0.00 77 1016.7
20260503222054 53 172 0.0 2.0 0.00 0.00 0.00 77 1016.7
20260503221555 53 172 0.0 1.0 0.00 0.00 0.00 78 1016.6
20260503221053 53 172 0.0 0.0 0.00 0.00 0.00 78 1016.6
20260503220552 53 172 0.0 2.0 0.00 0.00 0.00 78 1016.5
20260503220052 53 172 0.0 2.0 0.00 0.00 0.00 77 1016.4
20260503215550 53 172 0.0 2.0 0.00 0.00 0.00 77 1016.5
20260503215050 54 172 0.0 0.0 0.00 0.00 0.00 76 1016.5
20260503214556 54 172 0.0 1.0 0.00 0.00 0.00 75 1016.4
20260503214050 54 172 0.0 1.0 0.00 0.00 0.00 74 1016.4
20260503213550 55 172 0.0 0.0 0.00 0.00 0.00 75 1016.4
20260503213051 55 172 0.0 0.0 0.00 0.00 0.00 74 1016.5
20260503212550 55 172 0.0 0.0 0.00 0.00 0.00 74 1016.4
20260503212049 55 172 0.0 0.0 0.00 0.00 0.00 74 1016.4
20260503211549 56 172 0.0 0.0 0.00 0.00 0.00 71 1016.3
20260503211049 56 172 0.0 0.0 0.00 0.00 0.00 71 1016.3
20260503210549 56 172 0.0 0.0 0.00 0.00 0.00 71 1016.3
20260503210049 56 172 0.0 0.0 0.00 0.00 0.00 72 1016.3
20260503205549 56 172 0.0 0.0 0.00 0.00 0.00 71 1016.2
20260503205049 56 172 0.0 0.0 0.00 0.00 0.00 71 1016.2
20260503204548 56 172 0.0 0.0 0.00 0.00 0.00 72 1016.3
20260503204048 56 172 0.0 0.0 0.00 0.00 0.00 72 1016.3
20260503203548 56 172 0.0 2.0 0.00 0.00 0.00 72 1016.3
20260503203049 56 172 0.0 2.0 0.00 0.00 0.00 73 1016.3
20260503202550 57 172 0.0 0.0 0.00 0.00 0.00 71 1016.4
20260503202049 57 172 0.0 0.0 0.00 0.00 0.00 70 1016.4
20260503201551 57 172 0.0 0.0 0.00 0.00 0.00 68 1016.4
20260503201050 58 172 0.0 0.0 0.00 0.00 0.00 68 1016.4
20260503200547 58 172 0.0 0.0 0.00 0.00 0.00 67 1016.4
20260503200047 58 172 0.0 0.0 0.00 0.00 0.00 64 1016.4
20260503195546 59 172 0.0 0.0 0.00 0.00 0.00 63 1016.3
20260503195047 59 172 0.0 0.0 0.00 0.00 0.00 63 1016.3
20260503194558 59 172 0.0 0.0 0.00 0.00 0.00 63 1016.3
20260503194051 59 172 0.0 0.0 0.00 0.00 0.00 62 1016.3
20260503193549 60 172 0.0 0.0 0.00 0.00 0.00 62 1016.2
20260503193047 60 172 0.0 0.0 0.00 0.00 0.00 62 1016.2
20260503192546 60 172 0.0 0.0 0.00 0.00 0.00 60 1016.1
20260503192046 60 172 0.0 0.0 0.00 0.00 0.00 61 1016.1
20260503191551 61 172 0.0 1.0 0.00 0.00 0.00 60 1016.2
20260503191049 61 172 0.0 1.0 0.00 0.00 0.00 59 1016.2
20260503190546 62 173 0.0 0.0 0.00 0.00 0.00 60 1016.2
20260503190047 62 173 0.0 0.0 0.00 0.00 0.00 55 1016.2
20260503185545 63 173 0.0 0.0 0.00 0.00 0.00 55 1016.2
20260503185045 63 173 0.0 0.0 0.00 0.00 0.00 60 1016.1
20260503184545 64 173 0.0 0.0 0.00 0.00 0.00 58 1016.1
20260503184045 64 173 0.0 0.0 0.00 0.00 0.00 53 1016.0
20260503183544 64 173 0.0 0.0 0.00 0.00 0.00 52 1015.9
20260503183053 65 173 0.0 2.0 0.00 0.00 0.00 49 1015.8
20260503182544 65 173 0.0 2.0 0.00 0.00 0.00 48 1015.7
20260503182045 66 173 0.0 0.0 0.00 0.00 0.00 47 1015.7
20260503181558 66 173 0.0 0.0 0.00 0.00 0.00 48 1015.7
20260503181046 67 173 0.0 0.0 0.00 0.00 0.00 46 1015.7
20260503180544 67 173 0.0 1.0 0.00 0.00 0.00 45 1015.6
20260503180050 68 173 0.0 1.0 0.00 0.00 0.00 45 1015.6
20260503175543 68 173 0.0 0.0 0.00 0.00 0.00 44 1015.6
20260503175043 69 173 0.0 2.0 0.00 0.00 0.00 44 1015.7
20260503174548 69 173 0.0 2.0 0.00 0.00 0.00 43 1015.7
20260503174043 69 173 0.0 2.0 0.00 0.00 0.00 43 1015.7
20260503173543 70 181 0.0 4.0 0.00 0.00 0.00 42 1015.6
20260503173043 71 204 0.0 4.0 0.00 0.00 0.00 41 1015.6
20260503172542 71 219 0.0 4.0 0.00 0.00 0.00 40 1015.6
20260503172042 72 194 1.0 4.0 0.00 0.00 0.00 40 1015.6
20260503171542 72 148 0.0 3.0 0.00 0.00 0.00 40 1015.6
20260503171042 72 196 0.0 2.0 0.00 0.00 0.00 41 1015.6
20260503170541 72 196 0.0 5.0 0.00 0.00 0.00 39 1015.6